Date,TemperatureHighF,TemperatureAvgF,TemperatureLowF,DewpointHighF,DewpointAvgF,DewpointLowF,HumidityHigh,HumidityAvg,HumidityLow,PressureMaxIn,PressureMinIn,WindSpeedMaxMPH,WindSpeedAvgMPH,GustSpeedMaxMPH,PrecipitationSumIn
2013-12-1,64.4,41.1,27.5,36.1,26.8,20.8,98,64,21,30.36,30.01,8,1,8,0.00
2013-12-2,62.1,44.4,34.9,42.4,33.0,23.9,98,71,26,30.01,29.83,8,1,8,0.00
2013-12-3,58.5,45.9,32.7,44.1,35.1,29.5,98,70,36,30.01,29.86,9,0,9,0.00
2013-12-4,66.2,55.7,50.0,56.3,50.6,44.4,98,83,53,30.10,29.98,5,0,5,0.00
2013-12-5,66.4,60.8,53.2,65.8,60.0,52.7,98,97,86,30.16,30.04,9,0,9,0.04
2013-12-6,78.3,69.6,63.9,64.9,57.0,48.9,98,67,37,30.07,29.98,16,4,16,0.00
2013-12-7,69.1,48.3,41.4,61.7,37.6,21.0,98,68,45,30.45,30.01,17,4,17,0.13
2013-12-8,41.4,35.3,32.7,34.0,28.6,18.0,98,80,43,30.45,30.27,10,3,10,0.08
2013-12-9,45.5,39.9,34.3,45.0,39.3,33.8,98,98,98,30.27,30.07,6,0,6,0.20
2013-12-10,47.5,41.9,26.2,46.2,38.7,19.9,98,89,59,30.30,29.92,12,1,12,0.54
2013-12-11,52.5,34.5,23.4,30.6,19.7,11.1,98,61,23,30.45,30.27,10,1,10,0.00
2013-12-12,47.3,33.4,23.7,26.6,13.9,5.0,93,49,22,30.39,30.25,13,2,13,0.00
2013-12-13,52.0,34.2,21.0,22.5,15.2,8.2,85,50,21,30.39,30.27,13,2,13,0.00
2013-12-14,47.5,40.3,36.3,41.9,31.1,17.6,98,73,31,30.30,29.77,10,2,10,1.00
2013-12-15,56.3,42.5,30.0,45.3,30.9,18.7,98,69,28,30.07,29.71,11,2,11,1.00
2013-12-16,57.2,38.8,27.5,32.2,24.9,19.9,88,62,26,30.16,30.04,9,1,9,0.00
2013-12-17,64.2,45.3,30.0,38.5,28.9,22.6,98,61,24,30.10,29.86,18,2,18,0.00
2013-12-18,50.9,37.1,26.8,34.0,17.0,10.9,88,47,24,30.27,30.01,11,1,11,0.00
2013-12-19,63.9,42.1,25.3,22.5,18.2,14.7,76,44,18,30.30,30.22,15,2,15,0.00
2013-12-20,67.3,52.5,37.4,43.7,36.1,18.9,93,56,35,30.25,30.10,15,2,15,0.00
2013-12-21,73.6,60.4,48.0,63.5,51.5,43.5,98,75,41,30.16,30.04,16,2,16,0.00
2013-12-22,78.3,69.8,63.1,66.4,59.9,50.5,98,74,40,30.13,30.04,17,4,17,0.25
2013-12-23,66.6,60.2,46.0,65.8,58.6,38.3,98,94,75,30.13,29.98,15,2,15,1.45
2013-12-24,49.5,40.3,27.7,41.5,20.3,2.8,92,47,29,30.45,30.13,15,4,15,0.00
2013-12-25,43.5,28.9,21.9,11.7,5.6,2.7,60,38,23,30.54,30.39,9,2,9,0.00
2013-12-26,56.3,35.8,22.6,29.1,19.5,11.3,85,54,23,30.39,30.22,8,1,8,0.00
2013-12-27,55.8,37.0,26.6,20.8,14.6,9.7,75,42,20,30.45,30.33,8,1,8,0.00
2013-12-28,62.1,40.6,24.4,28.8,22.0,15.4,92,55,19,30.39,30.16,10,1,10,0.00
2013-12-29,63.3,48.9,41.0,62.6,45.2,24.6,98,88,42,30.16,29.65,13,2,13,1.62
2013-12-30,53.8,44.3,35.6,48.0,34.8,25.7,98,73,40,30.13,29.92,8,1,8,0.00
2013-12-31,51.8,40.4,29.5,37.6,23.2,13.6,96,54,24,30.33,30.10,13,2,13,0.00